| time (UTC) | temp F | wind direction | speed knots | gust knots | rain 1hr in | rain 24hr in | rain mn in | humidity % | barometer mb |
| 20260906031726 | 60 | 284 | 0.0 | 0.0 | 0.00 | 0.00 | 0.00 | 76 | 1017.9 |
| 20260906031233 | 61 | 284 | 0.0 | 0.0 | 0.00 | 0.00 | 0.00 | 75 | 1017.7 |
| 20260906030800 | 61 | 284 | 0.0 | 0.0 | 0.00 | 0.00 | 0.00 | 74 | 1017.7 |
| 20260906030728 | 61 | 284 | 0.0 | 0.0 | 0.00 | 0.00 | 0.00 | 74 | 1017.7 |
| 20260906030235 | 61 | 284 | 0.0 | 0.0 | 0.00 | 0.00 | 0.00 | 73 | 1017.6 |
| 20260906025722 | 62 | 284 | 0.0 | 0.0 | 0.00 | 0.00 | 0.00 | 72 | 1017.6 |
| 20260906025230 | 62 | 283 | 0.0 | 0.0 | 0.00 | 0.00 | 0.00 | 70 | 1017.7 |
| 20260906024303 | 63 | 284 | 0.0 | 0.0 | 0.00 | 0.00 | 0.00 | 70 | 1017.7 |
| 20260906023740 | 63 | 284 | 0.0 | 0.0 | 0.00 | 0.00 | 0.00 | 69 | 1017.8 |
| 20260906023221 | 63 | 284 | 0.0 | 0.0 | 0.00 | 0.00 | 0.00 | 67 | 1017.8 |
| 20260906022809 | 64 | 284 | 0.0 | 0.0 | 0.00 | 0.00 | 0.00 | 66 | 1017.7 |
| 20260906022225 | 64 | 284 | 0.0 | 0.0 | 0.00 | 0.00 | 0.00 | 66 | 1017.6 |
| 20260906021735 | 64 | 284 | 0.0 | 0.0 | 0.00 | 0.00 | 0.00 | 65 | 1017.5 |
| 20260906021302 | 65 | 284 | 0.0 | 0.0 | 0.00 | 0.00 | 0.00 | 65 | 1017.6 |
| 20260906021230 | 65 | 284 | 0.0 | 0.0 | 0.00 | 0.00 | 0.00 | 65 | 1017.6 |
| 20260906020732 | 65 | 284 | 0.0 | 0.0 | 0.00 | 0.00 | 0.00 | 62 | 1017.7 |
| 20260906020259 | 65 | 277 | 0.0 | 0.0 | 0.00 | 0.00 | 0.00 | 63 | 1017.7 |
| 20260906020227 | 65 | 277 | 0.0 | 0.0 | 0.00 | 0.00 | 0.00 | 63 | 1017.7 |
| 20260906015734 | 66 | 277 | 0.0 | 0.0 | 0.00 | 0.00 | 0.00 | 61 | 1017.6 |
| 20260906015240 | 66 | 277 | 0.0 | 0.0 | 0.00 | 0.00 | 0.00 | 60 | 1017.7 |
| 20260906014726 | 67 | 277 | 0.0 | 1.7 | 0.00 | 0.00 | 0.00 | 59 | 1017.7 |
| 20260906014233 | 67 | 277 | 0.9 | 1.7 | 0.00 | 0.00 | 0.00 | 58 | 1017.8 |
| 20260906013800 | 68 | 277 | 0.0 | 0.0 | 0.00 | 0.00 | 0.00 | 56 | 1017.8 |
| 20260906013728 | 68 | 277 | 0.0 | 0.0 | 0.00 | 0.00 | 0.00 | 56 | 1017.8 |
| 20260906013235 | 68 | 277 | 0.0 | 0.9 | 0.00 | 0.00 | 0.00 | 57 | 1017.6 |
| 20260906012722 | 68 | 277 | 0.0 | 0.9 | 0.00 | 0.00 | 0.00 | 57 | 1017.7 |
| 20260906012231 | 69 | 277 | 0.9 | 1.7 | 0.00 | 0.00 | 0.00 | 55 | 1017.7 |
| 20260906011757 | 69 | 287 | 0.0 | 1.7 | 0.00 | 0.00 | 0.00 | 55 | 1017.6 |
| 20260906011725 | 69 | 287 | 0.0 | 1.7 | 0.00 | 0.00 | 0.00 | 55 | 1017.6 |
| 20260906011252 | 70 | 234 | 0.0 | 1.7 | 0.00 | 0.00 | 0.00 | 54 | 1017.5 |
| 20260906010728 | 71 | 232 | 0.0 | 1.7 | 0.00 | 0.00 | 0.00 | 51 | 1017.5 |
| 20260906010235 | 71 | 202 | 0.9 | 1.7 | 0.00 | 0.00 | 0.00 | 51 | 1017.5 |
| 20260906005726 | 70 | 239 | 0.0 | 1.7 | 0.00 | 0.00 | 0.00 | 53 | 1017.5 |
| 20260906005254 | 71 | 242 | 0.9 | 1.7 | 0.00 | 0.00 | 0.00 | 52 | 1017.5 |
| 20260906004728 | 70 | 333 | 0.9 | 2.6 | 0.00 | 0.00 | 0.00 | 53 | 1017.5 |
| 20260906004235 | 70 | 300 | 0.0 | 2.6 | 0.00 | 0.00 | 0.00 | 53 | 1017.5 |
| 20260906003802 | 69 | 26 | 0.9 | 1.7 | 0.00 | 0.00 | 0.00 | 54 | 1017.6 |
| 20260906003730 | 69 | 26 | 0.9 | 1.7 | 0.00 | 0.00 | 0.00 | 54 | 1017.6 |
| 20260906003237 | 68 | 317 | 0.9 | 1.7 | 0.00 | 0.00 | 0.00 | 56 | 1017.5 |
| 20260906002724 | 68 | 217 | 0.0 | 1.7 | 0.00 | 0.00 | 0.00 | 57 | 1017.5 |
| 20260906002232 | 68 | 264 | 0.0 | 1.7 | 0.00 | 0.00 | 0.00 | 56 | 1017.5 |
| 20260906001738 | 68 | 263 | 0.0 | 2.6 | 0.00 | 0.00 | 0.00 | 56 | 1017.4 |
| 20260906001225 | 68 | 355 | 0.9 | 2.6 | 0.00 | 0.00 | 0.00 | 57 | 1017.5 |
| 20260906000732 | 68 | 172 | 0.9 | 2.6 | 0.00 | 0.00 | 0.00 | 56 | 1017.4 |
| 20260906000256 | 68 | 99 | 0.9 | 2.6 | 0.00 | 0.00 | 0.00 | 56 | 1017.6 |
| 20260906000222 | 68 | 99 | 0.9 | 2.6 | 0.00 | 0.00 | 0.00 | 56 | 1017.6 |
| 20260905235729 | 68 | 106 | 0.0 | 1.7 | 0.00 | 0.00 | 0.00 | 57 | 1017.6 |
| 20260905235221 | 69 | 106 | 0.9 | 1.7 | 0.00 | 0.00 | 0.00 | 55 | 1017.6 |
| 20260905234807 | 68 | 348 | 0.0 | 1.7 | 0.00 | 0.00 | 0.00 | 57 | 1017.7 |
| 20260905234222 | 68 | 81 | 0.0 | 1.7 | 0.00 | 0.00 | 0.00 | 57 | 1017.7 |
| 20260905233809 | 68 | 55 | 0.9 | 1.7 | 0.00 | 0.00 | 0.00 | 57 | 1017.7 |
| 20260905233305 | 68 | 149 | 0.9 | 1.7 | 0.00 | 0.00 | 0.00 | 55 | 1017.8 |
| 20260905232720 | 68 | 164 | 0.0 | 1.7 | 0.00 | 0.00 | 0.00 | 55 | 1017.7 |
| 20260905232228 | 68 | 196 | 0.9 | 2.6 | 0.00 | 0.00 | 0.00 | 55 | 1017.7 |
| 20260905231754 | 68 | 202 | 0.9 | 2.6 | 0.00 | 0.01 | 0.00 | 55 | 1017.6 |
| 20260905231230 | 69 | 173 | 0.9 | 2.6 | 0.00 | 0.01 | 0.00 | 55 | 1017.7 |
| 20260905230737 | 68 | 310 | 0.9 | 2.6 | 0.00 | 0.01 | 0.00 | 53 | 1017.8 |
| 20260905230224 | 68 | 93 | 0.9 | 4.3 | 0.00 | 0.01 | 0.00 | 53 | 1018.0 |
| 20260905225731 | 68 | 93 | 1.7 | 4.3 | 0.00 | 0.01 | 0.00 | 54 | 1017.9 |
| 20260905225240 | 68 | 330 | 1.7 | 4.3 | 0.00 | 0.01 | 0.00 | 54 | 1017.9 |
| 20260905224725 | 67 | 70 | 0.9 | 2.6 | 0.00 | 0.01 | 0.00 | 55 | 1018.0 |
| 20260905224236 | 67 | 131 | 0.9 | 2.6 | 0.00 | 0.01 | 0.00 | 57 | 1018.1 |
| 20260905223723 | 67 | 140 | 0.0 | 2.6 | 0.00 | 0.01 | 0.00 | 58 | 1018.1 |
| 20260905223311 | 66 | 95 | 0.9 | 3.5 | 0.00 | 0.01 | 0.00 | 59 | 1018.0 |
| 20260905223239 | 66 | 95 | 0.9 | 3.5 | 0.00 | 0.01 | 0.00 | 59 | 1018.0 |
| 20260905222726 | 66 | 84 | 0.9 | 3.5 | 0.00 | 0.01 | 0.00 | 60 | 1018.1 |
| 20260905222234 | 65 | 38 | 0.9 | 3.5 | 0.00 | 0.01 | 0.00 | 60 | 1018.2 |
| 20260905221800 | 65 | 80 | 1.7 | 3.5 | 0.00 | 0.01 | 0.00 | 62 | 1018.2 |
| 20260905221235 | 65 | 53 | 2.6 | 3.5 | 0.00 | 0.01 | 0.00 | 61 | 1018.3 |
| 20260905220722 | 64 | 63 | 0.9 | 1.7 | 0.00 | 0.01 | 0.00 | 64 | 1018.4 |
| 20260905220229 | 64 | 167 | 0.0 | 1.7 | 0.00 | 0.01 | 0.00 | 64 | 1018.5 |
| 20260905215736 | 63 | 191 | 0.0 | 1.7 | 0.00 | 0.01 | 0.00 | 66 | 1018.7 |
| 20260905215224 | 63 | 96 | 0.9 | 1.7 | 0.00 | 0.01 | 0.00 | 65 | 1018.7 |
| 20260905214730 | 63 | 18 | 0.0 | 1.7 | 0.00 | 0.01 | 0.00 | 66 | 1018.7 |
| 20260905214221 | 63 | 119 | 0.9 | 2.6 | 0.00 | 0.01 | 0.00 | 67 | 1018.7 |
| 20260905213728 | 63 | 130 | 0.9 | 2.6 | 0.00 | 0.01 | 0.00 | 66 | 1018.7 |
| 20260905213234 | 62 | 113 | 0.9 | 2.6 | 0.00 | 0.01 | 0.00 | 67 | 1018.7 |
| 20260905212721 | 62 | 105 | 0.9 | 2.6 | 0.00 | 0.01 | 0.00 | 66 | 1018.7 |
| 20260905212229 | 62 | 124 | 0.9 | 3.5 | 0.00 | 0.01 | 0.00 | 68 | 1018.6 |
| 20260905211735 | 62 | 203 | 0.0 | 3.5 | 0.00 | 0.01 | 0.00 | 69 | 1018.7 |
| 20260905211222 | 62 | 93 | 1.7 | 3.5 | 0.00 | 0.01 | 0.00 | 69 | 1018.6 |
| 20260905210809 | 62 | 72 | 0.9 | 2.6 | 0.00 | 0.01 | 0.00 | 70 | 1018.6 |
| 20260905210224 | 62 | 104 | 0.9 | 2.6 | 0.00 | 0.01 | 0.00 | 71 | 1018.7 |
| 20260905205731 | 61 | 100 | 0.9 | 2.6 | 0.00 | 0.01 | 0.00 | 71 | 1018.8 |
| 20260905205222 | 61 | 94 | 1.7 | 2.6 | 0.00 | 0.01 | 0.00 | 72 | 1018.8 |
| 20260905204728 | 61 | 67 | 0.9 | 1.7 | 0.00 | 0.01 | 0.00 | 72 | 1018.8 |
| 20260905204235 | 61 | 95 | 0.9 | 1.7 | 0.00 | 0.01 | 0.00 | 73 | 1018.8 |
| 20260905203802 | 61 | 107 | 0.9 | 1.7 | 0.00 | 0.01 | 0.00 | 73 | 1018.8 |
| 20260905203237 | 61 | 67 | 0.9 | 2.6 | 0.00 | 0.01 | 0.00 | 74 | 1018.8 |
| 20260905202724 | 61 | 92 | 0.9 | 3.5 | 0.00 | 0.01 | 0.00 | 74 | 1018.8 |
| 20260905202313 | 61 | 88 | 0.9 | 3.5 | 0.00 | 0.01 | 0.00 | 74 | 1018.9 |
| 20260905202241 | 61 | 88 | 0.9 | 3.5 | 0.00 | 0.01 | 0.00 | 74 | 1018.9 |
| 20260905201807 | 60 | 74 | 0.9 | 3.5 | 0.00 | 0.01 | 0.00 | 74 | 1018.9 |
| 20260905201222 | 60 | 68 | 0.9 | 3.5 | 0.00 | 0.01 | 0.00 | 73 | 1018.9 |
| 20260905200808 | 60 | 103 | 1.7 | 3.5 | 0.00 | 0.01 | 0.00 | 73 | 1019.0 |
| 20260905200736 | 60 | 103 | 1.7 | 3.5 | 0.00 | 0.01 | 0.00 | 73 | 1019.0 |
| 20260905200223 | 61 | 126 | 2.6 | 3.5 | 0.00 | 0.01 | 0.00 | 73 | 1019.0 |
| 20260905195730 | 61 | 65 | 0.9 | 1.7 | 0.00 | 0.01 | 0.00 | 73 | 1019.0 |
| 20260905195238 | 61 | 65 | 0.9 | 1.7 | 0.00 | 0.01 | 0.00 | 73 | 1019.0 |
| 20260905194724 | 61 | 119 | 0.9 | 1.7 | 0.00 | 0.01 | 0.00 | 72 | 1019.0 |
| 20260905194230 | 61 | 88 | 0.0 | 2.6 | 0.00 | 0.01 | 0.00 | 71 | 1019.0 |
| 20260905193736 | 61 | 79 | 1.7 | 2.6 | 0.00 | 0.01 | 0.00 | 70 | 1019.1 |
| 20260905193223 | 62 | 70 | 0.9 | 1.7 | 0.00 | 0.01 | 0.00 | 69 | 1019.0 |
| 20260905192730 | 62 | 108 | 0.9 | 1.7 | 0.00 | 0.01 | 0.00 | 68 | 1019.2 |
| 20260905192258 | 62 | 76 | 0.0 | 1.7 | 0.00 | 0.01 | 0.00 | 70 | 1019.2 |
| 20260905192226 | 62 | 76 | 0.0 | 1.7 | 0.00 | 0.01 | 0.00 | 70 | 1019.2 |
| 20260905191732 | 61 | 185 | 0.0 | 1.7 | 0.00 | 0.01 | 0.00 | 70 | 1019.2 |
| 20260905191239 | 61 | 117 | 0.0 | 1.7 | 0.00 | 0.01 | 0.00 | 69 | 1019.3 |
| 20260905190726 | 61 | 77 | 0.0 | 1.7 | 0.00 | 0.01 | 0.00 | 70 | 1019.2 |
| 20260905190253 | 61 | 93 | 0.9 | 1.7 | 0.00 | 0.01 | 0.00 | 70 | 1019.3 |
| 20260905190221 | 61 | 93 | 0.9 | 1.7 | 0.00 | 0.01 | 0.00 | 70 | 1019.3 |
| 20260905185728 | 61 | 331 | 0.0 | 4.3 | 0.00 | 0.01 | 0.00 | 69 | 1019.2 |
| 20260905185236 | 61 | 103 | 1.7 | 3.5 | 0.00 | 0.01 | 0.00 | 71 | 1019.2 |
| 20260905184722 | 61 | 205 | 1.7 | 3.5 | 0.00 | 0.01 | 0.00 | 72 | 1019.3 |
| 20260905184229 | 61 | 80 | 0.9 | 2.6 | 0.00 | 0.01 | 0.00 | 72 | 1019.3 |
| 20260905183756 | 61 | 123 | 0.9 | 3.5 | 0.00 | 0.01 | 0.00 | 74 | 1019.4 |
| 20260905183252 | 61 | 163 | 0.0 | 3.5 | 0.00 | 0.01 | 0.00 | 73 | 1019.4 |
| 20260905183220 | 61 | 163 | 0.0 | 3.5 | 0.00 | 0.01 | 0.00 | 73 | 1019.4 |
| 20260905182731 | 60 | 85 | 0.9 | 3.5 | 0.00 | 0.01 | 0.00 | 73 | 1019.4 |
| 20260905182238 | 60 | 74 | 0.9 | 3.5 | 0.00 | 0.01 | 0.00 | 72 | 1019.5 |
| 20260905181724 | 60 | 109 | 2.6 | 3.5 | 0.00 | 0.01 | 0.00 | 72 | 1019.5 |
| 20260905181231 | 60 | 166 | 0.0 | 1.7 | 0.00 | 0.01 | 0.00 | 73 | 1019.6 |
| 20260905180738 | 60 | 128 | 0.0 | 1.7 | 0.00 | 0.01 | 0.00 | 73 | 1019.5 |
| 20260905180225 | 60 | 126 | 0.0 | 2.6 | 0.00 | 0.01 | 0.00 | 73 | 1019.6 |
| 20260905175732 | 60 | 92 | 1.7 | 2.6 | 0.00 | 0.01 | 0.00 | 74 | 1019.6 |
| 20260905175240 | 60 | 82 | 0.9 | 1.7 | 0.00 | 0.01 | 0.00 | 74 | 1019.6 |
| 20260905174726 | 59 | 98 | 0.9 | 2.6 | 0.00 | 0.01 | 0.00 | 74 | 1019.6 |
| 20260905174233 | 59 | 101 | 1.7 | 2.6 | 0.00 | 0.01 | 0.00 | 74 | 1019.6 |
| 20260905173724 | 59 | 95 | 0.9 | 2.6 | 0.00 | 0.01 | 0.00 | 75 | 1019.5 |
| 20260905173231 | 59 | 60 | 0.9 | 2.6 | 0.00 | 0.01 | 0.00 | 74 | 1019.5 |
| 20260905172758 | 59 | 106 | 0.9 | 2.6 | 0.00 | 0.01 | 0.00 | 74 | 1019.4 |
| 20260905172234 | 58 | 81 | 0.9 | 2.6 | 0.00 | 0.01 | 0.00 | 75 | 1019.4 |
| 20260905171720 | 58 | 108 | 0.9 | 2.6 | 0.00 | 0.02 | 0.00 | 75 | 1019.4 |
| 20260905171227 | 58 | 105 | 2.6 | 2.6 | 0.00 | 0.02 | 0.00 | 74 | 1019.3 |
| 20260905170734 | 58 | 144 | 0.9 | 3.5 | 0.00 | 0.02 | 0.00 | 74 | 1019.4 |
| 20260905170221 | 59 | 107 | 1.7 | 3.5 | 0.00 | 0.02 | 0.00 | 75 | 1019.4 |
| 20260905165728 | 59 | 117 | 1.7 | 3.5 | 0.00 | 0.02 | 0.00 | 76 | 1019.4 |
| 20260905165237 | 59 | 104 | 1.7 | 5.2 | 0.00 | 0.02 | 0.00 | 75 | 1019.4 |
| 20260905164803 | 59 | 118 | 1.7 | 4.3 | 0.00 | 0.02 | 0.00 | 76 | 1019.2 |
| 20260905164259 | 59 | 77 | 2.6 | 5.2 | 0.00 | 0.02 | 0.00 | 74 | 1019.3 |
| 20260905163734 | 60 | 109 | 1.7 | 3.5 | 0.00 | 0.02 | 0.00 | 74 | 1019.3 |
| 20260905163300 | 60 | 84 | 0.9 | 1.7 | 0.00 | 0.02 | 0.00 | 74 | 1019.3 |
| 20260905162755 | 60 | 65 | 0.9 | 3.5 | 0.00 | 0.02 | 0.00 | 74 | 1019.2 |
| 20260905162253 | 60 | 101 | 1.7 | 3.5 | 0.00 | 0.02 | 0.00 | 73 | 1019.3 |
| 20260905161731 | 60 | 105 | 1.7 | 4.3 | 0.00 | 0.02 | 0.00 | 73 | 1019.1 |
| 20260905161238 | 60 | 128 | 0.9 | 4.3 | 0.00 | 0.02 | 0.00 | 73 | 1019.1 |
| 20260905160725 | 60 | 130 | 0.9 | 3.5 | 0.00 | 0.02 | 0.00 | 73 | 1019.0 |
| 20260905160232 | 60 | 122 | 1.7 | 3.5 | 0.00 | 0.02 | 0.00 | 73 | 1019.1 |
| 20260905155739 | 60 | 113 | 0.9 | 2.6 | 0.00 | 0.02 | 0.00 | 74 | 1019.0 |
| 20260905155306 | 60 | 118 | 0.9 | 1.7 | 0.00 | 0.02 | 0.00 | 75 | 1019.1 |
| 20260905155235 | 60 | 118 | 0.9 | 1.7 | 0.00 | 0.02 | 0.00 | 75 | 1019.1 |
| 20260905154739 | 59 | 227 | 0.9 | 1.7 | 0.00 | 0.02 | 0.00 | 75 | 1019.1 |
| 20260905154226 | 59 | 138 | 0.9 | 1.7 | 0.00 | 0.02 | 0.00 | 75 | 1019.1 |
| 20260905153733 | 59 | 155 | 0.9 | 1.7 | 0.00 | 0.02 | 0.00 | 77 | 1019.0 |
| 20260905153259 | 58 | 11 | 0.0 | 1.7 | 0.00 | 0.02 | 0.00 | 81 | 1019.1 |
| 20260905152754 | 57 | 80 | 0.9 | 1.7 | 0.00 | 0.02 | 0.00 | 82 | 1019.0 |
| 20260905152722 | 57 | 80 | 0.9 | 1.7 | 0.00 | 0.02 | 0.00 | 82 | 1019.0 |
| 20260905152230 | 56 | 84 | 0.9 | 2.6 | 0.00 | 0.02 | 0.00 | 85 | 1019.0 |
| 20260905151756 | 56 | 94 | 0.9 | 2.6 | 0.00 | 0.02 | 0.00 | 86 | 1019.1 |
| 20260905151231 | 55 | 101 | 0.0 | 1.7 | 0.00 | 0.02 | 0.00 | 89 | 1019.0 |
| 20260905150722 | 54 | 75 | 0.9 | 1.7 | 0.00 | 0.02 | 0.00 | 91 | 1019.0 |
| 20260905150229 | 53 | 71 | 0.0 | 1.7 | 0.00 | 0.02 | 0.00 | 94 | 1018.8 |
| 20260905145735 | 52 | 97 | 0.0 | 0.0 | 0.00 | 0.02 | 0.00 | 95 | 1018.8 |
| 20260905145223 | 51 | 97 | 0.0 | 0.0 | 0.00 | 0.02 | 0.00 | 95 | 1018.8 |
| 20260905144810 | 50 | 96 | 0.0 | 0.0 | 0.00 | 0.02 | 0.00 | 95 | 1018.8 |
| 20260905144305 | 50 | 96 | 0.0 | 0.0 | 0.00 | 0.02 | 0.00 | 94 | 1018.7 |
| 20260905143800 | 50 | 96 | 0.0 | 0.0 | 0.00 | 0.02 | 0.00 | 94 | 1018.6 |
| 20260905143256 | 50 | 97 | 0.0 | 0.0 | 0.00 | 0.02 | 0.00 | 94 | 1018.6 |
| 20260905142811 | 50 | 96 | 0.0 | 0.0 | 0.00 | 0.02 | 0.00 | 94 | 1018.5 |
| 20260905142227 | 50 | 97 | 0.0 | 0.0 | 0.00 | 0.02 | 0.00 | 94 | 1018.5 |
| 20260905141733 | 50 | 97 | 0.0 | 0.0 | 0.00 | 0.03 | 0.00 | 94 | 1018.5 |
| 20260905141300 | 50 | 96 | 0.0 | 1.7 | 0.00 | 0.03 | 0.00 | 94 | 1018.4 |
| 20260905140755 | 50 | 97 | 0.0 | 1.7 | 0.00 | 0.03 | 0.00 | 94 | 1018.4 |
| 20260905140311 | 50 | 84 | 0.0 | 0.0 | 0.00 | 0.03 | 0.00 | 94 | 1018.4 |
| 20260905135807 | 50 | 84 | 0.0 | 0.0 | 0.00 | 0.03 | 0.00 | 94 | 1018.4 |
| 20260905135223 | 50 | 84 | 0.0 | 0.0 | 0.00 | 0.03 | 0.00 | 94 | 1018.4 |
| 20260905134729 | 49 | 84 | 0.0 | 0.0 | 0.00 | 0.03 | 0.00 | 94 | 1018.2 |
| 20260905134256 | 49 | 84 | 0.0 | 0.0 | 0.00 | 0.03 | 0.00 | 94 | 1018.3 |
| 20260905134224 | 49 | 84 | 0.0 | 0.0 | 0.00 | 0.03 | 0.00 | 94 | 1018.3 |
| 20260905133731 | 49 | 84 | 0.0 | 0.0 | 0.00 | 0.03 | 0.00 | 94 | 1018.3 |
| 20260905133238 | 49 | 84 | 0.0 | 0.0 | 0.00 | 0.03 | 0.00 | 94 | 1018.2 |
| 20260905132725 | 49 | 84 | 0.0 | 0.0 | 0.00 | 0.03 | 0.00 | 95 | 1018.3 |
| 20260905132233 | 49 | 84 | 0.0 | 0.0 | 0.00 | 0.03 | 0.00 | 95 | 1018.2 |
| 20260905131723 | 49 | 84 | 0.0 | 0.0 | 0.00 | 0.03 | 0.00 | 95 | 1018.3 |
| 20260905131231 | 49 | 84 | 0.0 | 0.0 | 0.00 | 0.03 | 0.00 | 95 | 1018.2 |
| 20260905130735 | 49 | 84 | 0.0 | 0.0 | 0.00 | 0.03 | 0.00 | 95 | 1018.3 |
| 20260905130302 | 49 | 84 | 0.0 | 0.0 | 0.00 | 0.03 | 0.00 | 95 | 1018.3 |
| 20260905125737 | 49 | 84 | 0.0 | 0.0 | 0.00 | 0.03 | 0.00 | 94 | 1018.3 |
| 20260905125225 | 49 | 84 | 0.0 | 0.0 | 0.00 | 0.03 | 0.00 | 94 | 1018.1 |
| 20260905124731 | 49 | 84 | 0.0 | 0.0 | 0.00 | 0.03 | 0.00 | 94 | 1018.1 |
| 20260905124259 | 49 | 84 | 0.0 | 0.0 | 0.00 | 0.03 | 0.00 | 94 | 1018.1 |
| 20260905123734 | 49 | 84 | 0.0 | 0.0 | 0.00 | 0.03 | 0.00 | 94 | 1018.2 |
| 20260905123221 | 49 | 84 | 0.0 | 0.0 | 0.00 | 0.03 | 0.00 | 94 | 1018.2 |
| 20260905122808 | 49 | 84 | 0.0 | 0.0 | 0.00 | 0.03 | 0.00 | 94 | 1018.2 |
| 20260905122736 | 49 | 84 | 0.0 | 0.0 | 0.00 | 0.03 | 0.00 | 94 | 1018.2 |
| 20260905122224 | 49 | 84 | 0.0 | 0.0 | 0.00 | 0.03 | 0.00 | 94 | 1018.1 |
| 20260905121810 | 48 | 84 | 0.0 | 0.0 | 0.00 | 0.03 | 0.00 | 94 | 1018.1 |
| 20260905121738 | 48 | 84 | 0.0 | 0.0 | 0.00 | 0.03 | 0.00 | 94 | 1018.1 |
| 20260905121225 | 49 | 84 | 0.0 | 0.0 | 0.00 | 0.03 | 0.00 | 94 | 1018.2 |
| 20260905120752 | 49 | 84 | 0.0 | 0.0 | 0.00 | 0.03 | 0.00 | 94 | 1018.1 |
| 20260905120720 | 49 | 84 | 0.0 | 0.0 | 0.00 | 0.03 | 0.00 | 94 | 1018.1 |
| 20260905120231 | 49 | 84 | 0.0 | 0.0 | 0.00 | 0.03 | 0.00 | 94 | 1018.1 |
| 20260905115738 | 49 | 84 | 0.0 | 0.0 | 0.00 | 0.03 | 0.00 | 94 | 1018.1 |
| 20260905115227 | 49 | 84 | 0.0 | 0.0 | 0.00 | 0.03 | 0.00 | 94 | 1018.1 |
| 20260905114753 | 49 | 84 | 0.0 | 0.0 | 0.00 | 0.03 | 0.00 | 94 | 1018.2 |
| 20260905114721 | 49 | 84 | 0.0 | 0.0 | 0.00 | 0.03 | 0.00 | 94 | 1018.2 |
| 20260905114228 | 49 | 84 | 0.0 | 0.0 | 0.00 | 0.03 | 0.00 | 94 | 1018.1 |
| 20260905113734 | 49 | 84 | 0.0 | 0.0 | 0.00 | 0.03 | 0.00 | 94 | 1018.1 |
| 20260905113301 | 49 | 84 | 0.0 | 0.0 | 0.00 | 0.03 | 0.00 | 94 | 1018.0 |
| 20260905112757 | 48 | 84 | 0.0 | 0.0 | 0.00 | 0.03 | 0.00 | 94 | 1018.0 |
| 20260905112253 | 48 | 84 | 0.0 | 0.0 | 0.00 | 0.03 | 0.00 | 94 | 1018.0 |
| 20260905111807 | 48 | 84 | 0.0 | 0.0 | 0.00 | 0.04 | 0.00 | 94 | 1018.0 |
| 20260905111304 | 48 | 84 | 0.0 | 0.0 | 0.00 | 0.04 | 0.00 | 93 | 1017.9 |
| 20260905110739 | 48 | 84 | 0.0 | 0.0 | 0.00 | 0.04 | 0.00 | 93 | 1017.9 |
| 20260905110226 | 48 | 84 | 0.0 | 0.0 | 0.00 | 0.04 | 0.00 | 93 | 1017.9 |
| 20260905105733 | 48 | 84 | 0.0 | 0.0 | 0.00 | 0.04 | 0.00 | 93 | 1017.9 |
| 20260905105301 | 49 | 84 | 0.0 | 0.0 | 0.00 | 0.04 | 0.00 | 93 | 1017.7 |
| 20260905104735 | 49 | 84 | 0.0 | 0.0 | 0.00 | 0.04 | 0.00 | 93 | 1017.8 |
| 20260905104222 | 49 | 84 | 0.0 | 0.0 | 0.00 | 0.04 | 0.00 | 93 | 1017.9 |
| 20260905103729 | 49 | 84 | 0.0 | 0.0 | 0.00 | 0.04 | 0.00 | 94 | 1017.8 |
| 20260905103220 | 49 | 84 | 0.0 | 0.0 | 0.00 | 0.04 | 0.00 | 93 | 1017.8 |
| 20260905102727 | 49 | 84 | 0.0 | 0.0 | 0.00 | 0.04 | 0.00 | 93 | 1017.8 |
| 20260905102235 | 49 | 84 | 0.0 | 0.0 | 0.00 | 0.04 | 0.00 | 93 | 1017.7 |
| 20260905101800 | 49 | 84 | 0.0 | 0.0 | 0.00 | 0.04 | 0.00 | 93 | 1017.7 |
| 20260905101235 | 49 | 84 | 0.0 | 0.0 | 0.00 | 0.04 | 0.00 | 93 | 1017.7 |
| 20260905100802 | 49 | 84 | 0.0 | 0.0 | 0.00 | 0.04 | 0.00 | 93 | 1017.7 |
| 20260905100731 | 49 | 84 | 0.0 | 0.0 | 0.00 | 0.04 | 0.00 | 93 | 1017.7 |
| 20260905100257 | 49 | 84 | 0.0 | 0.0 | 0.00 | 0.04 | 0.00 | 93 | 1017.6 |
| 20260905100225 | 49 | 84 | 0.0 | 0.0 | 0.00 | 0.04 | 0.00 | 93 | 1017.6 |
| 20260905095732 | 49 | 84 | 0.0 | 0.0 | 0.00 | 0.04 | 0.00 | 93 | 1017.6 |
| 20260905095300 | 49 | 84 | 0.0 | 0.0 | 0.00 | 0.04 | 0.00 | 93 | 1017.8 |
| 20260905094734 | 49 | 84 | 0.0 | 0.0 | 0.00 | 0.04 | 0.00 | 93 | 1017.6 |
| 20260905094301 | 50 | 84 | 0.0 | 0.0 | 0.00 | 0.04 | 0.00 | 93 | 1017.6 |
| 20260905094229 | 50 | 84 | 0.0 | 0.0 | 0.00 | 0.04 | 0.00 | 93 | 1017.6 |
| 20260905093736 | 50 | 84 | 0.0 | 0.0 | 0.00 | 0.04 | 0.00 | 92 | 1017.7 |
| 20260905093304 | 50 | 84 | 0.0 | 0.0 | 0.00 | 0.04 | 0.00 | 93 | 1017.8 |
| 20260905092759 | 50 | 84 | 0.0 | 0.0 | 0.00 | 0.04 | 0.00 | 93 | 1017.7 |
| 20260905092255 | 50 | 84 | 0.0 | 0.0 | 0.00 | 0.04 | 0.00 | 93 | 1017.7 |
| 20260905092223 | 50 | 84 | 0.0 | 0.0 | 0.00 | 0.04 | 0.00 | 93 | 1017.7 |
| 20260905091729 | 50 | 84 | 0.0 | 0.0 | 0.00 | 0.04 | 0.00 | 93 | 1017.6 |
| 20260905091256 | 50 | 84 | 0.0 | 0.0 | 0.00 | 0.04 | 0.00 | 93 | 1017.7 |
| 20260905090731 | 50 | 84 | 0.0 | 0.0 | 0.00 | 0.04 | 0.00 | 92 | 1017.7 |
| 20260905090238 | 50 | 84 | 0.0 | 0.0 | 0.00 | 0.04 | 0.00 | 92 | 1017.7 |
| 20260905085806 | 50 | 84 | 0.0 | 0.0 | 0.00 | 0.04 | 0.00 | 92 | 1017.6 |
| 20260905085222 | 50 | 84 | 0.0 | 0.0 | 0.00 | 0.04 | 0.00 | 92 | 1017.6 |
| 20260905084732 | 51 | 84 | 0.0 | 0.0 | 0.00 | 0.04 | 0.00 | 92 | 1017.7 |
| 20260905084240 | 51 | 84 | 0.0 | 0.0 | 0.00 | 0.04 | 0.00 | 92 | 1017.7 |
| 20260905083726 | 51 | 84 | 0.0 | 0.0 | 0.00 | 0.04 | 0.00 | 92 | 1017.7 |
| 20260905083226 | 51 | 84 | 0.0 | 0.0 | 0.00 | 0.04 | 0.00 | 92 | 1017.7 |
| 20260905082733 | 51 | 84 | 0.0 | 0.0 | 0.00 | 0.04 | 0.00 | 92 | 1017.6 |
| 20260905082301 | 51 | 84 | 0.0 | 0.0 | 0.00 | 0.04 | 0.00 | 91 | 1017.5 |
| 20260905081734 | 51 | 84 | 0.0 | 0.9 | 0.00 | 0.05 | 0.04 | 91 | 1017.5 |
| 20260905081241 | 51 | 84 | 0.0 | 0.9 | 0.00 | 0.05 | 0.04 | 91 | 1017.5 |
| 20260905080804 | 51 | 84 | 0.0 | 1.7 | 0.00 | 0.05 | 0.04 | 91 | 1017.5 |
| 20260905080235 | 52 | 84 | 0.0 | 1.7 | 0.00 | 0.05 | 0.04 | 91 | 1017.4 |
| 20260905075721 | 52 | 84 | 0.0 | 0.0 | 0.00 | 0.05 | 0.04 | 92 | 1017.4 |
| 20260905075230 | 52 | 84 | 0.0 | 0.0 | 0.00 | 0.05 | 0.04 | 91 | 1017.5 |
| 20260905074736 | 52 | 84 | 0.0 | 0.0 | 0.00 | 0.05 | 0.04 | 91 | 1017.5 |
| 20260905074302 | 52 | 84 | 0.0 | 0.0 | 0.00 | 0.05 | 0.04 | 91 | 1017.5 |
| 20260905074230 | 52 | 84 | 0.0 | 0.0 | 0.00 | 0.05 | 0.04 | 91 | 1017.5 |
| 20260905073720 | 52 | 84 | 0.0 | 0.0 | 0.00 | 0.05 | 0.04 | 90 | 1017.5 |
| 20260905073307 | 52 | 84 | 0.0 | 0.0 | 0.00 | 0.05 | 0.04 | 90 | 1017.5 |
| 20260905072722 | 52 | 84 | 0.0 | 0.0 | 0.00 | 0.05 | 0.04 | 90 | 1017.5 |
| 20260905072231 | 53 | 84 | 0.0 | 0.0 | 0.00 | 0.05 | 0.04 | 90 | 1017.5 |
| 20260905071736 | 53 | 84 | 0.0 | 0.0 | 0.00 | 0.05 | 0.04 | 90 | 1017.5 |
| 20260905071304 | 53 | 84 | 0.0 | 0.0 | 0.00 | 0.05 | 0.04 | 90 | 1017.4 |
| 20260905070739 | 53 | 84 | 0.0 | 0.0 | 0.00 | 0.05 | 0.04 | 90 | 1017.4 |
| 20260905070307 | 53 | 84 | 0.0 | 1.7 | 0.00 | 0.05 | 0.04 | 89 | 1017.4 |
| 20260905065722 | 53 | 84 | 0.0 | 1.7 | 0.00 | 0.05 | 0.04 | 89 | 1017.2 |
| 20260905065230 | 54 | 109 | 0.0 | 0.0 | 0.00 | 0.05 | 0.04 | 89 | 1017.2 |
| 20260905064757 | 54 | 109 | 0.0 | 0.0 | 0.00 | 0.05 | 0.04 | 89 | 1017.1 |
| 20260905064232 | 54 | 109 | 0.0 | 0.0 | 0.00 | 0.05 | 0.04 | 89 | 1017.0 |
| 20260905063759 | 54 | 109 | 0.0 | 0.0 | 0.00 | 0.05 | 0.04 | 89 | 1017.0 |
| 20260905063254 | 54 | 109 | 0.0 | 0.0 | 0.00 | 0.05 | 0.04 | 89 | 1016.9 |
| 20260905062728 | 54 | 109 | 0.0 | 0.0 | 0.00 | 0.05 | 0.04 | 89 | 1017.0 |
| 20260905062236 | 54 | 109 | 0.0 | 0.0 | 0.00 | 0.05 | 0.04 | 89 | 1016.9 |
| 20260905061726 | 54 | 109 | 0.0 | 0.0 | 0.00 | 0.06 | 0.04 | 88 | 1017.0 |
| 20260905061254 | 54 | 109 | 0.0 | 0.0 | 0.00 | 0.06 | 0.04 | 88 | 1016.9 |
| 20260905060806 | 54 | 109 | 0.0 | 0.0 | 0.00 | 0.06 | 0.04 | 88 | 1016.8 |
| 20260905060225 | 54 | 109 | 0.0 | 0.0 | 0.00 | 0.06 | 0.04 | 88 | 1016.9 |
| 20260905055752 | 55 | 109 | 0.0 | 0.0 | 0.00 | 0.06 | 0.04 | 88 | 1016.9 |
| 20260905055229 | 55 | 109 | 0.0 | 0.0 | 0.00 | 0.06 | 0.04 | 87 | 1016.9 |
| 20260905054735 | 55 | 109 | 0.0 | 0.0 | 0.00 | 0.06 | 0.04 | 87 | 1016.8 |
| 20260905054302 | 55 | 109 | 0.0 | 0.0 | 0.00 | 0.06 | 0.04 | 87 | 1016.8 |
| 20260905053737 | 55 | 109 | 0.0 | 0.0 | 0.00 | 0.06 | 0.04 | 87 | 1016.8 |
| 20260905053224 | 55 | 109 | 0.0 | 0.0 | 0.00 | 0.06 | 0.04 | 87 | 1016.8 |
| 20260905052731 | 55 | 109 | 0.0 | 0.0 | 0.00 | 0.06 | 0.04 | 86 | 1016.8 |
| 20260905052258 | 56 | 109 | 0.0 | 0.0 | 0.00 | 0.06 | 0.04 | 86 | 1016.9 |
| 20260905051733 | 56 | 109 | 0.0 | 0.0 | 0.00 | 0.07 | 0.04 | 86 | 1016.9 |
| 20260905051239 | 56 | 109 | 0.0 | 0.0 | 0.00 | 0.07 | 0.04 | 86 | 1017.0 |
| 20260905050721 | 56 | 109 | 0.0 | 0.0 | 0.00 | 0.07 | 0.04 | 85 | 1017.0 |
| 20260905050309 | 56 | 109 | 0.0 | 0.0 | 0.00 | 0.07 | 0.04 | 85 | 1017.0 |
| 20260905045804 | 56 | 109 | 0.0 | 0.0 | 0.00 | 0.07 | 0.04 | 85 | 1017.0 |
| 20260905045732 | 56 | 109 | 0.0 | 0.0 | 0.00 | 0.07 | 0.04 | 85 | 1017.0 |
| 20260905045240 | 56 | 109 | 0.0 | 0.0 | 0.00 | 0.07 | 0.04 | 85 | 1017.0 |
| 20260905044730 | 57 | 109 | 0.0 | 0.0 | 0.00 | 0.07 | 0.04 | 85 | 1017.0 |
| 20260905044237 | 57 | 109 | 0.0 | 0.0 | 0.00 | 0.07 | 0.04 | 85 | 1017.7 |
| 20260905043725 | 57 | 109 | 0.0 | 0.0 | 0.00 | 0.07 | 0.04 | 85 | 1017.0 |
| 20260905043229 | 57 | 109 | 0.0 | 0.0 | 0.00 | 0.07 | 0.04 | 84 | 1017.0 |
| 20260905042736 | 57 | 109 | 0.0 | 0.0 | 0.00 | 0.07 | 0.04 | 84 | 1016.9 |
| 20260905042224 | 57 | 109 | 0.0 | 0.0 | 0.00 | 0.07 | 0.04 | 84 | 1016.9 |
| 20260905041730 | 57 | 109 | 0.0 | 0.0 | 0.00 | 0.08 | 0.04 | 83 | 1017.0 |
| 20260905041257 | 57 | 109 | 0.0 | 0.0 | 0.00 | 0.08 | 0.04 | 83 | 1016.9 |
| 20260905041225 | 57 | 109 | 0.0 | 0.0 | 0.00 | 0.08 | 0.04 | 83 | 1016.9 |
| 20260905040752 | 57 | 109 | 0.0 | 0.0 | 0.00 | 0.08 | 0.04 | 83 | 1016.9 |
| 20260905040720 | 57 | 109 | 0.0 | 0.0 | 0.00 | 0.08 | 0.04 | 83 | 1016.9 |
| 20260905040307 | 57 | 109 | 0.0 | 0.0 | 0.00 | 0.08 | 0.04 | 83 | 1016.9 |
| 20260905035803 | 57 | 109 | 0.0 | 0.0 | 0.00 | 0.08 | 0.04 | 83 | 1016.9 |
| 20260905035239 | 57 | 109 | 0.0 | 0.0 | 0.00 | 0.08 | 0.04 | 82 | 1016.8 |
| 20260905034725 | 58 | 109 | 0.0 | 0.0 | 0.00 | 0.08 | 0.04 | 82 | 1016.7 |
| 20260905034252 | 58 | 109 | 0.0 | 0.0 | 0.00 | 0.08 | 0.04 | 81 | 1016.7 |
| 20260905033727 | 58 | 109 | 0.0 | 0.0 | 0.00 | 0.08 | 0.04 | 81 | 1016.7 |
| 20260905033234 | 58 | 109 | 0.0 | 0.0 | 0.00 | 0.08 | 0.04 | 81 | 1016.7 |
| 20260905032726 | 58 | 109 | 0.0 | 0.0 | 0.00 | 0.08 | 0.04 | 80 | 1016.6 |
| 20260905032233 | 58 | 109 | 0.0 | 0.0 | 0.00 | 0.08 | 0.04 | 80 | 1016.5 |